CDT,Max TemperatureF,Mean TemperatureF,Min TemperatureF,Max Dew PointF,MeanDew PointF,Min DewpointF,Max Humidity, Mean Humidity, Min Humidity, Max Sea Level PressureIn, Mean Sea Level PressureIn, Min Sea Level PressureIn, Max VisibilityMiles, Mean VisibilityMiles, Min VisibilityMiles, Max Wind SpeedMPH, Mean Wind SpeedMPH, Max Gust SpeedMPH,PrecipitationIn, CloudCover, Events, WindDirDegrees
2013-8-1,83,71,59,66,61,56,97,71,45,30.07,30.01,29.92,10,10,10,10,4,16,0.00,0,,251
2013-8-2,85,75,64,67,64,59,90,72,54,30.00,29.91,29.88,10,10,10,18,6,23,T,2,,305
2013-8-3,80,71,62,61,57,54,87,65,42,30.17,30.09,30.01,10,10,10,13,5,18,0.00,1,,1
2013-8-4,79,68,56,59,56,53,90,66,42,30.21,30.16,30.09,10,10,10,12,4,15,0.00,0,,116
2013-8-5,80,70,59,71,64,57,93,84,74,30.07,29.94,29.85,10,10,10,20,5,23,T,5,,128
2013-8-6,88,79,69,74,71,67,100,80,59,29.90,29.85,29.80,10,8,0,14,4,18,0.00,4,Fog,184
2013-8-7,85,76,66,70,66,62,97,74,51,29.98,29.87,29.78,10,10,10,16,7,22,0.04,1,Rain-Thunderstorm,329
2013-8-8,83,73,62,65,61,58,93,70,46,30.02,30.00,29.97,10,10,7,10,4,16,0.00,1,,43
2013-8-9,83,73,63,66,62,59,93,74,55,30.11,30.03,29.99,10,10,10,13,5,17,0.00,2,,309
2013-8-10,82,72,61,61,56,52,90,65,40,30.19,30.15,30.12,10,10,10,14,5,18,0.00,1,,342
2013-8-11,84,73,62,66,62,58,93,72,51,30.14,30.08,30.01,10,10,10,14,5,18,0.00,2,,212
2013-8-12,84,74,64,67,63,57,87,65,43,30.02,29.99,29.95,10,10,10,16,7,24,T,3,Rain,309
2013-8-13,77,66,54,59,54,47,87,64,41,30.18,30.11,30.01,10,10,10,16,7,21,0.00,1,,22
2013-8-14,78,64,50,54,50,47,96,66,36,30.25,30.20,30.15,10,10,10,7,1,10,0.00,2,,60
2013-8-15,77,67,56,57,54,51,87,65,43,30.19,30.15,30.12,10,10,10,10,2,13,T,0,,188
2013-8-16,81,67,52,57,54,50,96,66,36,30.21,30.18,30.16,10,10,10,12,3,15,0.00,1,,93
2013-8-17,82,69,56,59,56,54,100,70,39,30.23,30.19,30.16,10,10,10,14,4,18,0.00,1,,103
2013-8-18,83,69,55,63,57,53,93,68,42,30.22,30.16,30.10,10,10,8,12,3,20,0.00,1,,168
2013-8-19,84,72,59,67,62,57,100,76,51,30.13,30.08,30.02,10,10,9,13,3,17,0.00,1,,204
2013-8-20,89,76,63,67,65,62,100,73,46,30.08,30.03,29.99,10,10,7,16,6,20,0.00,1,,169
2013-8-21,91,79,67,70,67,64,93,70,47,30.05,30.01,29.96,10,10,10,16,6,21,0.00,1,,183
2013-8-22,80,74,67,70,68,66,90,81,71,30.15,30.07,30.00,10,10,6,15,4,18,0.04,2,Rain-Thunderstorm,57
2013-8-23,86,74,62,67,64,62,100,78,55,30.16,30.12,30.08,10,8,1,13,5,17,0.00,1,,114
2013-8-24,90,78,65,72,67,60,87,70,52,30.21,30.15,30.11,10,10,10,16,8,22,0.00,1,,136
2013-8-25,94,81,67,69,66,61,100,67,33,30.22,30.15,30.11,10,10,10,17,8,23,0.00,0,,183
2013-8-26,95,81,66,73,69,64,93,70,46,30.14,30.07,29.97,10,10,10,14,4,21,0.00,0,,211
2013-8-27,97,84,71,71,69,66,93,68,42,29.99,29.93,29.86,10,10,10,18,7,26,0.00,0,,216
2013-8-28,96,85,74,78,71,66,91,72,53,30.01,29.95,29.90,10,10,10,13,6,17,0.00,1,,275
2013-8-29,94,84,73,76,73,71,100,75,49,30.05,30.00,29.94,10,10,10,12,5,14,0.00,1,,125
2013-8-30,101,87,73,75,72,64,100,66,31,29.94,29.86,29.76,10,8,1,15,4,21,0.00,2,,201
2013-8-31,89,81,72,71,69,68,93,73,52,29.85,29.80,29.75,10,10,10,13,6,16,0.00,2,,50